Location: Cheyres
(46.8153°N, 6.7877°E)
Time: 03:21:32
(UTC+00:00)

H-2A R/B - Pass Details

Date: 11 May 2021
Orbit: 573 x 598 km, 98.2° (Epoch: 18 June)

Event Time Altitude Azimuth Distance (km) Brightness Sun altitude
Rises 21:11:09 0° 17° (NNE) 2,846 7.5 -18.0°
Reaches altitude 10° 21:13:23 10° 22° (NNE) 1,936 6.5 -18.2°
Maximum altitude 21:17:30 56° 101° (E) 710 3.6 -18.6°
Enters shadow 21:18:27 44° 148° (SSE) 817 3.7 -18.7°
